| time (UTC) | temp F | wind direction | speed knots | gust knots | rain 1hr in | rain 24hr in | rain mn in | humidity % | barometer mb |
| 20260507024143 | 94 | 0.0 | 0.0 | 0.00 | 0.00 | 0.00 | 23 | 811.0 | |
| 20260507023128 | 95 | 0.0 | 0.0 | 0.00 | 0.00 | 0.00 | 24 | 810.9 | |
| 20260507022114 | 93 | 0.0 | 0.0 | 0.00 | 0.00 | 0.00 | 23 | 810.7 | |
| 20260507021100 | 93 | 0.0 | 0.0 | 0.00 | 0.00 | 0.00 | 22 | 810.6 | |
| 20260507020046 | 94 | 0.0 | 0.0 | 0.00 | 0.00 | 0.00 | 22 | 810.4 | |
| 20260507015031 | 94 | 0.0 | 0.0 | 0.00 | 0.00 | 0.00 | 23 | 810.3 | |
| 20260507014017 | 93 | 0.0 | 0.0 | 0.00 | 0.00 | 0.00 | 21 | 810.1 | |
| 20260507013003 | 93 | 0.0 | 0.0 | 0.00 | 0.00 | 0.00 | 21 | 810.0 | |
| 20260507011948 | 94 | 0.0 | 0.0 | 0.00 | 0.00 | 0.00 | 22 | 809.9 | |
| 20260507010934 | 94 | 0.0 | 0.0 | 0.00 | 0.00 | 0.00 | 22 | 809.7 | |
| 20260507005920 | 94 | 0.0 | 0.0 | 0.00 | 0.00 | 0.00 | 22 | 809.7 | |
| 20260507004906 | 93 | 0.0 | 0.0 | 0.00 | 0.00 | 0.00 | 21 | 809.7 | |
| 20260507003850 | 95 | 0.0 | 0.0 | 0.00 | 0.00 | 0.00 | 23 | 809.5 | |
| 20260507002835 | 95 | 0.0 | 0.0 | 0.00 | 0.00 | 0.00 | 21 | 809.4 | |
| 20260507001820 | 96 | 0.0 | 0.0 | 0.00 | 0.00 | 0.00 | 22 | 809.4 | |
| 20260507000806 | 95 | 0.0 | 0.0 | 0.00 | 0.00 | 0.00 | 21 | 809.2 | |
| 20260506235752 | 96 | 0.0 | 0.0 | 0.00 | 0.00 | 0.00 | 20 | 809.1 | |
| 20260506234737 | 96 | 0.0 | 0.0 | 0.00 | 0.00 | 0.00 | 21 | 809.1 | |
| 20260506233723 | 96 | 0.0 | 0.0 | 0.00 | 0.00 | 0.00 | 23 | 809.0 | |
| 20260506232709 | 96 | 0.0 | 0.0 | 0.00 | 0.00 | 0.00 | 23 | 808.8 | |
| 20260506231655 | 96 | 0.0 | 0.0 | 0.00 | 0.00 | 0.00 | 21 | 808.8 | |
| 20260506230640 | 96 | 0.0 | 0.0 | 0.00 | 0.00 | 0.00 | 22 | 808.8 | |
| 20260506225626 | 95 | 0.0 | 0.0 | 0.00 | 0.00 | 0.00 | 21 | 808.8 | |
| 20260506224611 | 95 | 0.0 | 0.0 | 0.00 | 0.00 | 0.00 | 22 | 808.9 | |
| 20260506223557 | 95 | 0.0 | 0.0 | 0.00 | 0.00 | 0.00 | 23 | 808.9 | |
| 20260506222542 | 95 | 0.0 | 0.0 | 0.00 | 0.00 | 0.00 | 24 | 808.9 | |
| 20260506221528 | 94 | 0.0 | 0.0 | 0.00 | 0.00 | 0.00 | 22 | 809.1 | |
| 20260506220514 | 95 | 0.0 | 0.0 | 0.00 | 0.00 | 0.00 | 25 | 809.1 | |
| 20260506215500 | 94 | 0.0 | 0.0 | 0.00 | 0.00 | 0.00 | 23 | 809.1 | |
| 20260506214445 | 95 | 0.0 | 0.0 | 0.00 | 0.00 | 0.00 | 25 | 809.2 | |
| 20260506213431 | 94 | 0.0 | 0.0 | 0.00 | 0.00 | 0.00 | 25 | 809.2 | |
| 20260506212417 | 94 | 0.0 | 0.0 | 0.00 | 0.00 | 0.00 | 25 | 809.3 | |
| 20260506211403 | 95 | 0.0 | 0.0 | 0.00 | 0.00 | 0.00 | 26 | 809.4 | |
| 20260506210349 | 93 | 0.0 | 0.0 | 0.00 | 0.00 | 0.00 | 25 | 809.6 | |
| 20260506205334 | 93 | 0.0 | 0.0 | 0.00 | 0.00 | 0.00 | 26 | 809.6 | |
| 20260506204320 | 93 | 0.0 | 0.0 | 0.00 | 0.00 | 0.00 | 26 | 809.8 | |
| 20260506203306 | 94 | 0.0 | 0.0 | 0.00 | 0.00 | 0.00 | 26 | 809.9 | |
| 20260506202252 | 93 | 0.0 | 0.0 | 0.00 | 0.00 | 0.00 | 27 | 810.0 | |
| 20260506201238 | 93 | 0.0 | 0.0 | 0.00 | 0.00 | 0.00 | 27 | 810.2 | |
| 20260506200223 | 91 | 0.0 | 0.0 | 0.00 | 0.00 | 0.00 | 27 | 810.3 | |
| 20260506195209 | 92 | 0.0 | 0.0 | 0.00 | 0.00 | 0.00 | 26 | 810.6 | |
| 20260506194155 | 91 | 0.0 | 0.0 | 0.00 | 0.00 | 0.00 | 27 | 810.7 | |
| 20260506193141 | 91 | 0.0 | 0.0 | 0.00 | 0.00 | 0.00 | 28 | 810.9 | |
| 20260506192126 | 92 | 0.0 | 0.0 | 0.00 | 0.00 | 0.00 | 28 | 811.1 | |
| 20260506191112 | 91 | 0.0 | 0.0 | 0.00 | 0.00 | 0.00 | 28 | 811.3 | |
| 20260506190058 | 91 | 0.0 | 0.0 | 0.00 | 0.00 | 0.00 | 28 | 811.4 | |
| 20260506185044 | 91 | 0.0 | 0.0 | 0.00 | 0.00 | 0.00 | 28 | 811.6 | |
| 20260506184029 | 90 | 0.0 | 0.0 | 0.00 | 0.00 | 0.00 | 27 | 811.8 | |
| 20260506183015 | 91 | 0.0 | 0.0 | 0.00 | 0.00 | 0.00 | 28 | 811.9 | |
| 20260506182001 | 90 | 0.0 | 0.0 | 0.00 | 0.00 | 0.00 | 29 | 811.9 | |
| 20260506180947 | 90 | 0.0 | 0.0 | 0.00 | 0.00 | 0.00 | 31 | 812.1 | |
| 20260506175933 | 89 | 0.0 | 0.0 | 0.00 | 0.00 | 0.00 | 32 | 812.2 | |
| 20260506174918 | 90 | 0.0 | 0.0 | 0.00 | 0.00 | 0.00 | 31 | 812.3 | |
| 20260506173904 | 90 | 0.0 | 0.0 | 0.00 | 0.00 | 0.00 | 31 | 812.4 | |
| 20260506172850 | 87 | 0.0 | 0.0 | 0.00 | 0.00 | 0.00 | 31 | 812.6 | |
| 20260506171836 | 89 | 0.0 | 0.0 | 0.00 | 0.00 | 0.00 | 31 | 812.6 | |
| 20260506170822 | 89 | 0.0 | 0.0 | 0.00 | 0.00 | 0.00 | 32 | 812.8 | |
| 20260506165808 | 88 | 0.0 | 0.0 | 0.00 | 0.00 | 0.00 | 32 | 812.9 | |
| 20260506164753 | 88 | 0.0 | 0.0 | 0.00 | 0.00 | 0.00 | 33 | 812.9 | |
| 20260506163739 | 87 | 0.0 | 0.0 | 0.00 | 0.00 | 0.00 | 34 | 813.1 | |
| 20260506162725 | 86 | 0.0 | 0.0 | 0.00 | 0.00 | 0.00 | 33 | 813.2 | |
| 20260506161711 | 88 | 0.0 | 0.0 | 0.00 | 0.00 | 0.00 | 34 | 813.2 | |
| 20260506160657 | 88 | 0.0 | 0.0 | 0.00 | 0.00 | 0.00 | 35 | 813.2 | |
| 20260506155642 | 86 | 0.0 | 0.0 | 0.00 | 0.00 | 0.00 | 37 | 813.3 | |
| 20260506154628 | 87 | 0.0 | 0.0 | 0.00 | 0.00 | 0.00 | 36 | 813.3 | |
| 20260506153614 | 86 | 0.0 | 0.0 | 0.00 | 0.00 | 0.00 | 35 | 813.3 | |
| 20260506152600 | 85 | 0.0 | 0.0 | 0.00 | 0.00 | 0.00 | 34 | 813.2 | |
| 20260506151545 | 86 | 0.0 | 0.0 | 0.00 | 0.00 | 0.00 | 34 | 813.2 | |
| 20260506150531 | 86 | 0.0 | 0.0 | 0.00 | 0.00 | 0.00 | 33 | 813.1 | |
| 20260506145517 | 86 | 0.0 | 0.0 | 0.00 | 0.00 | 0.00 | 33 | 813.3 | |
| 20260506144503 | 85 | 0.0 | 0.0 | 0.00 | 0.00 | 0.00 | 33 | 813.1 | |
| 20260506143448 | 85 | 0.0 | 0.0 | 0.00 | 0.00 | 0.00 | 32 | 813.1 | |
| 20260506142434 | 87 | 0.0 | 0.0 | 0.00 | 0.00 | 0.00 | 31 | 813.2 | |
| 20260506141420 | 87 | 0.0 | 0.0 | 0.00 | 0.00 | 0.00 | 31 | 813.2 | |
| 20260506140406 | 88 | 0.0 | 0.0 | 0.00 | 0.00 | 0.00 | 31 | 813.2 | |
| 20260506135352 | 88 | 0.0 | 0.0 | 0.00 | 0.00 | 0.00 | 31 | 813.2 | |
| 20260506134338 | 86 | 0.0 | 0.0 | 0.00 | 0.00 | 0.00 | 33 | 813.2 | |
| 20260506133323 | 83 | 0.0 | 0.0 | 0.00 | 0.00 | 0.00 | 36 | 813.1 | |
| 20260506132309 | 82 | 0.0 | 0.0 | 0.00 | 0.00 | 0.00 | 36 | 813.1 | |
| 20260506131255 | 82 | 0.0 | 0.0 | 0.00 | 0.00 | 0.00 | 37 | 813.0 | |
| 20260506130240 | 83 | 0.0 | 0.0 | 0.00 | 0.00 | 0.00 | 35 | 813.1 | |
| 20260506125226 | 82 | 0.0 | 0.0 | 0.00 | 0.00 | 0.00 | 36 | 813.0 | |
| 20260506124212 | 83 | 0.0 | 0.0 | 0.00 | 0.00 | 0.00 | 36 | 812.9 | |
| 20260506123158 | 84 | 0.0 | 0.0 | 0.00 | 0.00 | 0.00 | 34 | 812.9 | |
| 20260506122144 | 84 | 0.0 | 0.0 | 0.00 | 0.00 | 0.00 | 35 | 812.9 | |
| 20260506121129 | 84 | 0.0 | 0.0 | 0.00 | 0.00 | 0.00 | 35 | 812.8 | |
| 20260506120115 | 83 | 0.0 | 0.0 | 0.00 | 0.00 | 0.00 | 35 | 812.6 | |
| 20260506115101 | 84 | 0.0 | 0.0 | 0.00 | 0.00 | 0.00 | 34 | 812.7 | |
| 20260506114047 | 84 | 0.0 | 0.0 | 0.00 | 0.00 | 0.00 | 35 | 812.6 | |
| 20260506113032 | 84 | 0.0 | 0.0 | 0.00 | 0.00 | 0.00 | 34 | 812.5 | |
| 20260506112019 | 84 | 0.0 | 0.0 | 0.00 | 0.00 | 0.00 | 34 | 812.5 | |
| 20260506111004 | 84 | 0.0 | 0.0 | 0.00 | 0.00 | 0.00 | 34 | 812.4 | |
| 20260506105950 | 85 | 0.0 | 0.0 | 0.00 | 0.00 | 0.00 | 34 | 812.3 | |
| 20260506104936 | 86 | 0.0 | 0.0 | 0.00 | 0.00 | 0.00 | 34 | 812.3 | |
| 20260506103921 | 87 | 0.0 | 0.0 | 0.00 | 0.00 | 0.00 | 33 | 812.2 | |
| 20260506102907 | 88 | 0.0 | 0.0 | 0.00 | 0.00 | 0.00 | 34 | 812.1 | |
| 20260506101853 | 88 | 0.0 | 0.0 | 0.00 | 0.00 | 0.00 | 35 | 812.0 | |
| 20260506100839 | 88 | 0.0 | 0.0 | 0.00 | 0.00 | 0.00 | 33 | 812.1 | |
| 20260506095824 | 88 | 0.0 | 0.0 | 0.00 | 0.00 | 0.00 | 35 | 812.0 | |
| 20260506094810 | 89 | 0.0 | 0.0 | 0.00 | 0.00 | 0.00 | 33 | 812.1 | |
| 20260506093756 | 90 | 0.0 | 0.0 | 0.00 | 0.00 | 0.00 | 33 | 812.2 | |
| 20260506092742 | 90 | 0.0 | 0.0 | 0.00 | 0.00 | 0.00 | 34 | 812.1 | |
| 20260506091728 | 90 | 0.0 | 0.0 | 0.00 | 0.00 | 0.00 | 34 | 812.1 | |
| 20260506090713 | 91 | 0.0 | 0.0 | 0.00 | 0.00 | 0.00 | 33 | 812.1 | |
| 20260506085659 | 91 | 0.0 | 0.0 | 0.00 | 0.00 | 0.00 | 33 | 812.1 | |
| 20260506084645 | 91 | 0.0 | 0.0 | 0.00 | 0.00 | 0.00 | 33 | 812.2 | |
| 20260506083630 | 91 | 0.0 | 0.0 | 0.00 | 0.00 | 0.00 | 32 | 812.2 | |
| 20260506082616 | 91 | 0.0 | 0.0 | 0.00 | 0.00 | 0.00 | 32 | 812.3 | |
| 20260506081602 | 91 | 0.0 | 0.0 | 0.00 | 0.00 | 0.00 | 33 | 812.2 | |
| 20260506080548 | 91 | 0.0 | 0.0 | 0.00 | 0.00 | 0.00 | 33 | 812.3 | |
| 20260506073505 | 91 | 0.0 | 0.0 | 0.00 | 0.00 | 0.00 | 34 | 812.4 | |
| 20260506072451 | 91 | 0.0 | 0.0 | 0.00 | 0.00 | 0.00 | 34 | 812.4 | |
| 20260506071437 | 91 | 0.0 | 0.0 | 0.00 | 0.00 | 0.00 | 34 | 812.4 | |
| 20260506070423 | 91 | 0.0 | 0.0 | 0.00 | 0.00 | 0.00 | 32 | 812.5 | |
| 20260506062326 | 90 | 0.0 | 0.0 | 0.00 | 0.00 | 0.00 | 31 | 812.8 | |
| 20260506061312 | 93 | 0.0 | 0.0 | 0.00 | 0.00 | 0.00 | 29 | 812.8 | |
| 20260506060257 | 93 | 0.0 | 0.0 | 0.00 | 0.00 | 0.00 | 29 | 812.8 | |
| 20260506051146 | 93 | 0.0 | 0.0 | 0.00 | 0.00 | 0.00 | 30 | 812.8 | |
| 20260506050132 | 93 | 0.0 | 0.0 | 0.00 | 0.00 | 0.00 | 29 | 812.8 | |
| 20260506045118 | 94 | 0.0 | 0.0 | 0.00 | 0.00 | 0.00 | 29 | 812.7 | |
| 20260506044104 | 93 | 0.0 | 0.0 | 0.00 | 0.00 | 0.00 | 29 | 812.6 | |
| 20260506043049 | 94 | 0.0 | 0.0 | 0.00 | 0.00 | 0.00 | 29 | 812.5 | |
| 20260506042035 | 94 | 0.0 | 0.0 | 0.00 | 0.00 | 0.00 | 29 | 812.4 | |
| 20260506041021 | 93 | 0.0 | 0.0 | 0.00 | 0.00 | 0.00 | 29 | 812.4 | |
| 20260506040007 | 94 | 0.0 | 0.0 | 0.00 | 0.00 | 0.00 | 29 | 812.2 | |
| 20260506034953 | 93 | 0.0 | 0.0 | 0.00 | 0.00 | 0.00 | 28 | 812.1 | |
| 20260506033937 | 92 | 0.0 | 0.0 | 0.00 | 0.00 | 0.00 | 28 | 811.8 | |
| 20260506032923 | 93 | 0.0 | 0.0 | 0.00 | 0.00 | 0.00 | 28 | 811.8 | |
| 20260506031909 | 92 | 0.0 | 0.0 | 0.00 | 0.00 | 0.00 | 27 | 811.6 | |
| 20260506030855 | 92 | 0.0 | 0.0 | 0.00 | 0.00 | 0.00 | 27 | 811.5 | |
| 20260506025840 | 93 | 0.0 | 0.0 | 0.00 | 0.00 | 0.00 | 26 | 811.3 | |
| 20260506024826 | 93 | 0.0 | 0.0 | 0.00 | 0.00 | 0.00 | 26 | 811.2 |